Regional Weather Roundup
Issued by NWS Boston, MA

Current Version | Previous Version | Text Only | Print | Product List | Glossary Off
Versions: 1 2 3 4 5 6 7 8 9 10 11 12 13 14 15 16 17 18 19 20 21 22 23 24 25 26 27 28 29 30 31 32 33 34 35 36 37 38 39 40 41 42 43 44 45 46 47 48 49 50

000
ASUS41 KBOX 012310
RWRBOX

REGIONAL WEATHER ROUNDUP
NATIONAL WEATHER SERVICE TAUNTON MA
700 PM EDT TUE SEP 01 2015

NOTE:  "FAIR" INDICATES FEW OR NO CLOUDS BELOW 12,000 FEET WITH NO
SIGNIFICANT WEATHER AND/OR OBSTRUCTIONS TO VISIBILITY.  THE FOLLOWING
OBSERVATION LOCATIONS DO NOT REPORT PRESENT WEATHER...PROVINCETOWN...
SMITHFIELD...BLOCK ISLAND...KEENE...AND OXFORD.

MAZALL-020000-
EASTERN MASSACHUSETTS

CITY           SKY/WX    TMP DP  RH WIND       PRES   REMARKS
BOSTON         CLEAR     71  63  75 E8        30.02S
BEVERLY        CLEAR     69  60  73 SE6       30.01F
LAWRENCE       CLEAR     73  61  65 SE3       30.03S
BEDFORD        CLEAR     73  59  61 E7        30.00S
BLUE HILL        N/A     73  61  65 SE12      30.02F
NORWOOD        CLEAR     75  63  66 SE7       30.01S
MARSHFIELD     CLEAR     72  63  73 S5        30.04S
PLYMOUTH       CLEAR     72  62  71 VRB5      30.04S
TAUNTON        CLEAR     75  63  66 SE5       30.02R
NEW BEDFORD    CLEAR     73  64  73 S7        30.02S
$$

MAZALL-020000-
CAPE COD AND THE ISLANDS

CITY           SKY/WX    TMP DP  RH WIND       PRES   REMARKS
FALMOUTH       CLEAR     70  63  78 SE7       30.04S
HYANNIS        CLEAR     71  61  70 SE3       30.02F
CHATHAM        CLEAR     69  62  78 E3        30.04F
PROVINCETOWN     N/A     70  57  64 S6        30.03S
NANTUCKET      CLEAR     70  63  78 E5        30.03S
MARTHAS VNYRD  CLEAR     71  64  78 S5        30.03F
$$

MAZALL-020000-
CENTRAL AND WESTERN MASSACHUSETTS

CITY           SKY/WX    TMP DP  RH WIND       PRES   REMARKS
WORCESTER      CLEAR     76  58  53 W6        30.05S
FITCHBURG      CLEAR     82  58  43 W5        30.02R
ORANGE         CLEAR     77  62  59 SW5       30.03R
SPRINGFIELD    CLEAR     79  58  49 CALM      30.00S
WESTFIELD      CLEAR     79  59  50 S3        30.01S
NORTH ADAMS    CLEAR     75  66  73 CALM      30.03S
PITTSFIELD     CLEAR     76  61  59 SW3       30.05S
$$

RIZALL-020000-
RHODE ISLAND

CITY           SKY/WX    TMP DP  RH WIND       PRES   REMARKS
PROVIDENCE     PTCLDY    76  65  68 S7        30.03R
NEWPORT        CLEAR     73  65  75 S6        30.03S
BLOCK ISLAND   CLEAR     73  66  78 S5        30.04S
SMITHFIELD     CLEAR     75  63  64 CALM      30.03S
WESTERLY       CLEAR     74  65  73 S3        30.03F
$$

CTZALL-020000-
CONNECTICUT

CITY           SKY/WX    TMP DP  RH WIND       PRES   REMARKS
BRADLEY INTL   CLEAR     82  58  43 CALM      30.00S
HARTFORD       CLEAR     80  60  50 E3        30.00S
BRIDGEPORT     CLEAR     82  67  60 S7        30.01S
DANBURY        CLEAR     80  61  52 CALM      30.04R
GROTON         CLEAR     73  68  84 CALM      30.02F
NEW HAVEN      CLEAR     79  67  66 SE6       30.02S
CHESTER        NOT AVBL
MERIDEN        CLEAR     82  60  47 S6        30.01R
WILLIMANTIC    CLEAR     79  62  56 S7        30.02R
OXFORD         PTCLDY    81  63  54 S6        30.06S
$$

MEZ002-015-021-024-NHZ003-005-008-011-012-014-VTZ005-008-020000-
NORTHERN NEW ENGLAND

CITY           SKY/WX    TMP DP  RH WIND       PRES   REMARKS
PORTLAND ME    CLEAR     68  59  73 S6        30.02F
BANGOR ME      MOCLDY    68  57  68 CALM      30.00S
CONCORD NH     CLEAR     77  63  61 S3        30.01S
MANCHESTER NH  CLEAR     79  61  53 SE9       29.99S
NASHUA NH      CLEAR     80  59  48 CALM      30.01R
PORTSMOUTH NH  CLEAR     69  60  74 SE6       30.00F
JAFFREY NH     CLEAR     76  62  62 CALM      30.06S
KEENE NH       CLEAR     73  63  68 CALM      30.03S
BURLINGTON VT  PTCLDY    82  55  39 S3        29.99S
MT. WASHINGTON PTCLDY    63   1   8 W7          N/A
$$

NYZ052-076-020000-
EASTERN NEW YORK

CITY           SKY/WX    TMP DP  RH WIND       PRES   REMARKS
ALBANY         PTCLDY    82  63  52 NW6       30.01R
NEW YORK CITY  PTCLDY    81  63  54 S8        30.01R
$$

ANZALL-020000-
MARINE OBSERVATIONS

STATION/POSITION TIME  TEMP    WIND        PRES    VSBY  WAVE
                       AIR SEA DIR/SP/G                  HT/PER
                 (UTC) (F)     (DEG/KT/KT) (MB)    (MI)  (FT/S)
BOSTON BUOY      2250   70 71  140/ 10/ 12 1016.9F         1/ 3
BUZZARDS BAY     2200          150/  8/  8 1017.7S
NANTUCKET SOUND  2250   69 72   90/  6/  8 1016.8S         1
MASS BAY-STELLWA 2204   70 71  160/ 10/ 12   N/A    1 7/8  1/ 8
ISLE OF SHOALS   2300   68     180/ 10/ 11 1016.1F
S OF BLOCK IS    2208      75                N/A           2/ 6
$$

......................KEY.........................
  SKY/WX - SKY CONDITION/PRESENT WEATHER
  TMP    - TEMPERATURE IN FAHRENHEIT
  DWPT   - DEWPOINT IN FAHRENHEIT
  RH     - RELATIVE HUMIDITY IN PERCENT
  WIND   - DIRECTION AND SPEED IN MPH
  PRES   - MEAN SEA LEVEL PRESSURE IN INCHES OF HG
  WCI    - WIND CHILL INDEX
  VSB    - VISIBILITY IN MILES
  HX     - HEAT INDEX
  TC     - TEMPERATURE IN CELSIUS
  VRB    - VARIABLE WIND DIRECTION
  N/A    - NOT AVAILABLE



USA.gov is the U.S. government's official web portal to all federal, state and local government web resources and services.